DECAYED

NOAA 16 DEB, 42346 (Decayed)

Orbit data source: Space-Track

NOAA 16 DEB, 42346 was space debris in LEO originally from a launch on Thu, 21 Sep 2000 UTC launched from the Air Force Western Test Range (AFWTR). Debris objects in space refer to the collection of defunct objects orbiting the Earth. Examples of debris include non-operational satellites, rocket bodies, and fragments generated from explosions, collisions, or faulty payload assembly.

Not visible in the next 10 days
NOAA 16 DEB details
Identifier
42346, 2000-055QN
Orbit
Decayed
Last TLE update2 months ago
Origin
Flag of USNOAA (US)
ManufacturerUnknown
MissionDecayed spacecraft
Bus & MotorUnknown
MassUnknown
Launch date (UTC)
2000-09-21 (24 years ago)
Launch vehicleUnknown
Launch site
Air Force Western Test Range (AFWTR)
Object type
Payload
Rocket body
Debris
Shape & HBRUnknown
Radar Cross SectionSmall (<0.1 m²)

Expand to show TLE details & history

TLE from 2 months ago
0 NOAA 16 DEB
1 42346U 00055QN  24266.00932353  .00653240  00000-0  26432-1 0  9992
2 42346  99.0137 179.7295 0025800  85.0696 275.3479 15.21920337452875
Epoch: 2024-09-22T00:13Z
Definitive object data (Epoch: 2024-09-22T00:13:25.552Z)
Latitude-0.00013°
Longitude175.01468°
Altitude501.482 km
Speed7.615 km/s
True Right ascension11h 58m 55s
True Declination0° 00' 00"
Sunlit
Object was in daylight at TLE epoch
Visualization observer readout
Observer readout values are unavailable because the object's trajectory could not be propagated. This is usually caused when the trajectory data is faulty or the object's orbit has decayed.
Visualization observer readout
Observer readout values are unavailable because the object's trajectory could not be propagated. This is usually caused when the trajectory data is faulty or the object's orbit has decayed.
Orbital elements
Apogee altitude514.826 km
Perigee altitude479.35 km
Semi-major axis6,875.225 km
Eccentricity0.00258
Inclination99.0137°
RAAN179.7295°
Arg. of periapsis85.0696°
True anomaly275.05345°
Mean anomaly275.3479°
Eccentric anomaly275.20069°
Mean motion3.80726 °/min
BSTAR0.026432
Orbital period94.56 mins
Loading maneuver chart data...
Loading historical data...
Loading historical data...
Loading historical data...
Loading historical data...
Loading historical data...
Loading historical data...
Loading historical data...

NOAA 16 DEB Visibility forecast

Observer location: undefined°, undefined

This satellite is decayed
Span
Click to sort rows by Start time (UTC) header in descending order
Start Az.
Max El. time (UTC)
Max El. Az.
Max El.
End time (UTC)
End Az.
|